Location: ??
(35.5052°N, 139.7262°E)
Time: 18:12:03
(UTC+00:00)

ALOS 2 - Pass Details

Date: 20 June 2021
Orbit: 630 x 632 km, 97.9° (Epoch: 30 July)

Event Time Altitude Azimuth Distance (km) Brightness Sun altitude
Exits shadow 13:50:42 32° 32° (NNE) 1,095 4.1 -29.8°
Drops below altitude 10° 13:53:29 10° 4° (N) 2,019 6.0 -29.9°
Sets 13:55:46 0° 357° (N) 2,931 7.2 -30.0°
